TimeEST,TemperatureF,Dew PointF,Humidity,Sea Level PressureIn,VisibilityMPH,Wind Direction,Wind SpeedMPH,Gust SpeedMPH,PrecipitationIn,Events,Conditions,WindDirDegrees,DateUTC
12:00 AM,35.6,33.8,93,30.23,25.0,East,4.6,-,N/A,,Overcast,80,2012-12-04 05:00:00
1:00 AM,33.8,32.0,93,30.22,25.0,NE,2.3,-,N/A,,Overcast,50,2012-12-04 06:00:00
2:00 AM,33.8,32.0,93,30.19,25.0,NE,5.8,-,N/A,,Overcast,50,2012-12-04 07:00:00
3:00 AM,33.8,32.0,93,30.17,25.0,NE,5.8,-,N/A,,Overcast,40,2012-12-04 08:00:00
4:00 AM,35.6,33.8,93,30.15,25.0,NE,4.6,-,N/A,,Overcast,40,2012-12-04 09:00:00
5:00 AM,35.6,33.8,93,30.13,25.0,NE,5.8,-,N/A,,Overcast,50,2012-12-04 10:00:00
6:00 AM,35.6,33.8,93,30.10,25.0,NE,5.8,-,N/A,,Mostly Cloudy,50,2012-12-04 11:00:00
7:00 AM,35.6,33.8,93,30.08,25.0,NE,5.8,-,N/A,,Overcast,40,2012-12-04 12:00:00
7:12 AM,35.6,33.8,93,30.08,12.0,NE,6.9,-,N/A,,Overcast,50,2012-12-04 12:12:00
7:26 AM,35.6,33.8,93,30.08,3.0,ENE,5.8,-,N/A,Rain,Light Rain,70,2012-12-04 12:26:00
7:48 AM,35.6,33.8,93,30.07,2.0,NE,5.8,-,N/A,Rain,Light Rain,50,2012-12-04 12:48:00
8:00 AM,35.6,33.8,93,30.06,2.0,NNE,5.8,-,N/A,Rain,Light Rain,30,2012-12-04 13:00:00
8:21 AM,35.6,33.8,93,30.06,2.0,NNE,5.8,-,N/A,Rain,Light Rain,30,2012-12-04 13:21:00
8:33 AM,35.6,33.8,93,30.06,3.0,NE,4.6,-,N/A,Rain,Light Rain,50,2012-12-04 13:33:00
8:47 AM,35.6,35.6,100,30.05,3.0,NE,6.9,-,N/A,Rain,Light Rain,40,2012-12-04 13:47:00
9:00 AM,35.6,35.6,100,30.05,3.0,NE,6.9,-,N/A,Rain,Light Rain,50,2012-12-04 14:00:00
9:37 AM,35.6,35.6,100,30.04,3.0,NE,5.8,-,N/A,,Overcast,50,2012-12-04 14:37:00
10:00 AM,37.4,35.6,93,30.03,3.0,NNE,6.9,-,N/A,,Overcast,30,2012-12-04 15:00:00
11:00 AM,37.4,37.4,100,30.00,3.0,NE,6.9,-,N/A,,Overcast,40,2012-12-04 16:00:00
12:00 PM,39.2,37.4,93,29.96,3.0,NE,5.8,-,N/A,,Overcast,40,2012-12-04 17:00:00
12:13 PM,39.2,39.2,100,29.95,3.0,NNE,6.9,-,N/A,,Overcast,30,2012-12-04 17:13:00
1:00 PM,41.0,39.2,93,29.93,4.0,NE,6.9,-,N/A,,Overcast,40,2012-12-04 18:00:00
2:00 PM,41.0,41.0,100,29.90,4.0,NE,4.6,-,N/A,,Overcast,50,2012-12-04 19:00:00
3:00 PM,41.0,39.2,93,29.87,4.0,NE,6.9,-,N/A,,Mostly Cloudy,50,2012-12-04 20:00:00
4:00 PM,41.0,39.2,93,29.86,4.0,NE,4.6,-,N/A,,Overcast,50,2012-12-04 21:00:00
5:00 PM,41.0,41.0,100,29.85,6.0,NNE,5.8,-,N/A,Rain,Light Rain,30,2012-12-04 22:00:00
6:00 PM,42.8,42.8,100,29.85,4.0,NNW,3.5,-,N/A,Rain,Light Rain,330,2012-12-04 23:00:00
7:00 PM,42.8,42.8,100,29.83,3.0,Variable,2.3,-,N/A,Rain,Light Rain,0,2012-12-05 00:00:00
7:18 PM,42.8,42.8,100,29.83,1.5,NNW,2.3,-,N/A,Rain,Light Rain,340,2012-12-05 00:18:00
8:00 PM,42.8,42.8,100,29.85,1.5,Calm,Calm,-,N/A,Rain,Light Rain,0,2012-12-05 01:00:00
8:20 PM,42.8,42.8,100,29.84,2.0,Calm,Calm,-,N/A,Rain,Light Rain,0,2012-12-05 01:20:00
9:00 PM,44.6,44.6,100,29.83,3.0,South,3.5,-,N/A,Rain,Light Rain,170,2012-12-05 02:00:00
10:00 PM,44.6,44.6,100,29.85,4.0,West,3.5,-,N/A,Rain,Light Rain,260,2012-12-05 03:00:00
11:00 PM,46.4,46.4,100,29.84,5.0,SW,9.2,-,N/A,Rain,Light Rain,230,2012-12-05 04:00:00